TimeEST,TemperatureF,Dew PointF,Humidity,Sea Level PressureIn,VisibilityMPH,Wind Direction,Wind SpeedMPH,Gust SpeedMPH,PrecipitationIn,Events,Conditions,WindDirDegrees,DateUTC
12:15 AM,66.2,64.4,94,30.21,5.0,NNE,6.9,-,N/A,,Overcast,20,2013-11-06 05:15:00
12:35 AM,66.2,64.4,94,30.21,5.0,North,8.1,-,N/A,,Overcast,10,2013-11-06 05:35:00
12:55 AM,66.2,64.4,94,30.20,5.0,North,5.8,-,N/A,,Overcast,10,2013-11-06 05:55:00
1:35 AM,64.4,64.4,100,30.19,5.0,North,6.9,-,N/A,,Overcast,10,2013-11-06 06:35:00
1:55 AM,64.4,64.4,100,30.19,5.0,North,9.2,-,N/A,,Overcast,10,2013-11-06 06:55:00
2:15 AM,64.4,64.4,100,30.18,5.0,North,6.9,-,N/A,,Overcast,10,2013-11-06 07:15:00
2:35 AM,64.4,64.4,100,30.17,5.0,North,5.8,-,N/A,,Overcast,10,2013-11-06 07:35:00
2:55 AM,64.4,64.4,100,30.17,5.0,North,6.9,-,N/A,,Overcast,10,2013-11-06 07:55:00
3:15 AM,64.4,64.4,100,30.17,5.0,North,6.9,-,N/A,,Overcast,10,2013-11-06 08:15:00
3:35 AM,64.4,64.4,100,30.17,5.0,North,6.9,-,N/A,,Overcast,360,2013-11-06 08:35:00
3:55 AM,64.4,64.4,100,30.17,5.0,North,6.9,-,N/A,,Overcast,10,2013-11-06 08:55:00
4:15 AM,64.4,64.4,100,30.17,5.0,North,5.8,-,N/A,,Overcast,10,2013-11-06 09:15:00
4:35 AM,64.4,64.4,100,30.16,5.0,North,5.8,-,N/A,,Overcast,10,2013-11-06 09:35:00
4:55 AM,64.4,64.4,100,30.16,5.0,North,8.1,-,N/A,,Overcast,10,2013-11-06 09:55:00
5:15 AM,64.4,64.4,100,30.17,5.0,North,6.9,-,N/A,,Overcast,10,2013-11-06 10:15:00
5:35 AM,64.4,64.4,100,30.17,5.0,North,10.4,16.1,N/A,,Overcast,10,2013-11-06 10:35:00
6:50 AM,64.4,62.6,94,30.18,4.0,North,6.9,-,N/A,,Overcast,10,2013-11-06 11:50:00
7:50 AM,64.4,64.4,100,30.20,2.5,NNE,8.1,-,N/A,,Overcast,30,2013-11-06 12:50:00
8:50 AM,64.4,64.4,100,30.20,2.5,North,11.5,-,N/A,,Overcast,10,2013-11-06 13:50:00
9:50 AM,66.2,64.4,94,30.20,5.0,North,9.2,-,N/A,,Overcast,10,2013-11-06 14:50:00
10:50 AM,68.0,66.2,94,30.20,7.0,North,5.8,-,N/A,,Overcast,10,2013-11-06 15:50:00
11:30 AM,73.4,66.2,78,30.18,7.0,North,5.8,-,N/A,,Mostly Cloudy,10,2013-11-06 16:30:00
11:50 AM,75.2,66.2,73,30.17,7.0,NNE,6.9,-,N/A,,Mostly Cloudy,20,2013-11-06 16:50:00
12:50 PM,75.2,66.2,73,30.14,7.0,Variable,5.8,-,N/A,,Mostly Cloudy,0,2013-11-06 17:50:00
1:50 PM,77.0,62.6,61,30.12,10.0,ENE,6.9,-,N/A,,Mostly Cloudy,60,2013-11-06 18:50:00
2:50 PM,77.0,64.4,65,30.11,10.0,Variable,5.8,-,N/A,,Mostly Cloudy,0,2013-11-06 19:50:00
3:50 PM,77.0,64.4,65,30.10,10.0,Variable,5.8,-,N/A,,Mostly Cloudy,0,2013-11-06 20:50:00
4:50 PM,69.8,66.2,88,30.10,10.0,Variable,3.5,-,N/A,,Scattered Clouds,0,2013-11-06 21:50:00
5:50 PM,69.8,68.0,94,30.11,10.0,NNE,6.9,-,N/A,,Mostly Cloudy,20,2013-11-06 22:50:00
6:50 PM,68.0,66.2,94,30.12,10.0,ENE,5.8,-,N/A,,Mostly Cloudy,60,2013-11-06 23:50:00
7:15 PM,68.0,66.2,94,30.12,7.0,NE,6.9,-,N/A,,Overcast,40,2013-11-07 00:15:00
7:35 PM,68.0,66.2,94,30.12,6.0,NNE,4.6,-,N/A,,Overcast,30,2013-11-07 00:35:00
7:50 PM,68.0,66.2,94,30.12,6.0,ENE,3.5,-,N/A,,Overcast,60,2013-11-07 00:50:00
7:55 PM,68.0,66.2,94,30.12,6.0,NNE,3.5,-,N/A,,Overcast,20,2013-11-07 00:55:00
8:15 PM,68.0,66.2,94,30.12,7.0,Calm,Calm,-,N/A,,Overcast,0,2013-11-07 01:15:00
8:35 PM,68.0,66.2,94,30.12,7.0,North,3.5,-,N/A,,Overcast,360,2013-11-07 01:35:00
8:55 PM,68.0,66.2,94,30.12,7.0,North,8.1,-,N/A,,Overcast,10,2013-11-07 01:55:00
9:15 PM,68.0,66.2,94,30.11,7.0,NNE,8.1,-,N/A,,Overcast,20,2013-11-07 02:15:00
9:35 PM,68.0,66.2,94,30.11,7.0,NNE,6.9,-,N/A,,Overcast,30,2013-11-07 02:35:00
9:55 PM,68.0,66.2,94,30.11,5.0,North,3.5,-,N/A,,Overcast,10,2013-11-07 02:55:00
10:15 PM,68.0,66.2,94,30.11,5.0,North,5.8,-,N/A,,Overcast,360,2013-11-07 03:15:00
10:35 PM,68.0,66.2,94,30.11,5.0,NNW,4.6,-,N/A,,Overcast,330,2013-11-07 03:35:00
10:55 PM,68.0,66.2,94,30.11,6.0,North,5.8,-,N/A,,Overcast,360,2013-11-07 03:55:00
11:15 PM,68.0,66.2,94,30.11,7.0,NNE,4.6,-,N/A,,Overcast,20,2013-11-07 04:15:00
11:35 PM,68.0,66.2,94,30.11,6.0,Calm,Calm,-,N/A,,Overcast,0,2013-11-07 04:35:00
11:55 PM,68.0,66.2,94,30.10,6.0,Calm,Calm,-,N/A,,Overcast,0,2013-11-07 04:55:00